Location: Mount Cross
(36.6390°N, 79.4878°W)
Time: 12:01:49
(UTC+00:00)

Vanguard 2 Rocket - All Passes

Search period start: 30 March 2023 00:00
Search period end: 09 April 2023 00:00
Orbit: 555 x 3315 km, 32.9° (Epoch: 30 March)

Date Brightness Start Highest point End Pass type
(mag) Time Alt. Az. Time Alt. Az. Time Alt. Az.
30 Mar - 00:47:16 10° WSW 00:53:17 68° S 01:04:04 10° E visible
30 Mar - 02:59:16 10° W 03:07:35 62° SSW 03:22:23 10° ESE visible
30 Mar - 05:12:38 10° W 05:23:06 38° SSW 05:38:49 10° SSE visible
30 Mar - 07:31:27 10° WSW 07:39:17 15° SW 07:48:16 10° S visible
30 Mar - 21:37:15 10° SSW 21:40:19 19° SE 21:44:08 10° ESE daylight
30 Mar - 23:47:18 10° WSW 23:52:22 59° SSE 00:00:59 10° E visible
31 Mar - 01:58:58 10° W 02:06:00 66° S 02:18:46 10° ESE visible
31 Mar - 04:11:35 10° W 04:20:54 44° SSW 04:36:07 10° SE visible
31 Mar - 06:27:21 10° WSW 06:36:47 21° SSW 06:48:51 10° S night (unlit)
31 Mar - 22:47:27 10° SW 22:51:47 44° SSE 22:58:22 10° E daylight
01 Apr - 00:58:49 10° W 01:04:45 68° S 01:15:21 10° ESE visible
01 Apr - 03:10:56 10° W 03:18:59 51° SSW 03:32:59 10° SE visible
01 Apr - 05:25:01 10° W 05:34:25 27° SSW 05:47:43 10° SSE visible
01 Apr - 21:47:49 10° SW 21:51:25 28° SSE 21:56:08 10° E daylight
01 Apr - 23:58:45 10° WSW 00:03:48 64° S 00:12:20 10° E visible
02 Apr - 02:10:34 10° W 02:17:26 57° SSW 02:29:41 10° ESE visible
02 Apr - 04:23:35 10° W 04:32:16 33° SSW 04:45:40 10° SSE visible
02 Apr - 06:42:42 10° WSW 06:48:06 13° SW 06:54:16 10° SSW night (unlit)
02 Apr - 20:48:34 10° S 20:51:09 16° SSE 20:53:58 10° ESE daylight
02 Apr - 22:58:45 10° WSW 23:03:07 54° SSE 23:09:48 10° E daylight
03 Apr - 01:10:21 10° W 01:16:11 61° S 01:26:29 10° ESE visible
03 Apr - 03:22:43 10° W 03:30:23 39° SSW 03:43:05 10° SE visible
03 Apr - 05:38:23 10° WSW 05:45:46 18° SSW 05:55:17 10° S night (unlit)
03 Apr - 21:58:49 10° SW 22:02:37 39° SSE 22:07:45 10° E daylight
04 Apr - 00:10:15 10° W 00:15:13 63° S 00:23:36 10° ESE visible
04 Apr - 02:22:12 10° W 02:28:50 45° SSW 02:40:14 10° SE visible
04 Apr - 04:36:08 10° WSW 04:43:39 23° SSW 04:54:20 10° SSE visible
04 Apr - 20:58:58 10° SW 21:02:16 26° SSE 21:06:03 10° E daylight
04 Apr - 23:10:09 10° WSW 23:14:29 59° S 23:21:08 10° E daylight
05 Apr - 01:21:55 10° W 01:27:35 51° SSW 01:37:22 10° ESE visible
05 Apr - 03:34:48 10° WSW 03:41:48 28° SSW 03:52:30 10° SSE visible
05 Apr - 19:59:22 10° SSW 20:01:53 16° SSE 20:04:24 10° ESE daylight
05 Apr - 22:10:02 10° WSW 22:13:56 50° S 22:19:10 10° E daylight
06 Apr - 00:21:43 10° W 00:26:37 55° S 00:34:41 10° ESE visible
06 Apr - 02:34:01 10° W 02:40:15 33° SSW 02:50:15 10° SE visible
06 Apr - 04:50:05 10° SW 04:55:05 14° SSW 05:01:14 10° S night (unlit)
06 Apr - 21:09:51 10° SW 21:13:29 37° SSE 21:17:39 10° E daylight
06 Apr - 23:21:34 10° W 23:25:52 57° S 23:32:22 10° ESE daylight
07 Apr - 01:33:33 10° W 01:38:59 38° SSW 01:47:51 10° SE visible
07 Apr - 03:47:37 10° WSW 03:53:14 18° SSW 04:00:52 10° SSE visible
07 Apr - 20:09:38 10° SW 20:13:05 26° SSE 20:16:27 10° ESE daylight
07 Apr - 22:21:21 10° WSW 22:25:16 55° S 22:30:30 10° E daylight
08 Apr - 00:33:15 10° W 00:37:59 44° SSW 00:45:32 10° ESE visible
08 Apr - 02:46:14 10° WSW 02:51:40 22° SSW 02:59:31 10° SSE visible
08 Apr - 19:09:27 10° SSW 19:12:35 18° SSE 19:15:21 10° ESE daylight
08 Apr - 21:21:00 10° WSW 21:24:47 47° S 21:29:04 10° E daylight
08 Apr - 23:33:00 10° W 23:37:12 49° S 23:43:26 10° ESE daylight
